Roseau, MN

11:23 AM CST on December 07, 2016 (GMT -0600)
Roseau Municipal-Billberg

Weather History for KROX - November, 2012

Change the Weather History Date:

Friday, November 2, 2012

  Actual Average Record
Temperature  
Mean Temperature 30 °F -  
Max Temperature 33 °F 41 °F 67 °F (1978)
Min Temperature 28 °F 24 °F -7 °F (1984)
Degree Days  
Heating Degree Days 34    
Moisture  
Dew Point 24 °F    
Average Humidity 77    
Maximum Humidity 80    
Minimum Humidity 65    
Precipitation  
Precipitation 0.00 in - - ()
Sea Level Pressure  
Sea Level Pressure 30.17 in    
Wind  
Wind Speed 8 mph (ENE)    
Max Wind Speed 13 mph    
Max Gust Speed 16 mph    
Visibility 10 miles    
Events Snow    
Averages and records for this station are not official NWS values.
T = Trace of Precipitation, MM = Missing Value Source: NWS Daily Summary

Daily Weather History Graph

Daily Weather History Graph

Search for Another Location

Airport or City:

Trip Planner

Search our weather history database for the weather conditions in past years. The results will help you decide how hot, cold, wet, or windy it might be!

Date:

Astronomy

Nov. 02, 2012 Rise Set
Actual Time 8:12 AM CDT 5:59 PM CDT
Civil Twilight 7:38 AM CDT 6:33 PM CDT
Nautical Twilight 7:01 AM CDT 7:10 PM CDT
Astronomical Twilight 6:24 AM CDT 7:47 PM CDT
Moon 8:37 PM CDT (11/2) 11:44 AM CDT (11/2)
Length of Visible Light 10h 54m
Length of Day
9h 47m
Waning Gibbous, 87% of the Moon is Illuminated
Nov 2
Waning Gibbous
Nov 6
Last Quarter
Nov 13
New
Nov 20
First Quarter
Nov 28
Full

Hourly Weather History & Observations

Time (CDT) Temp. Windchill Dew Point Humidity Pressure Visibility Wind Dir Wind Speed Gust Speed Precip Events Conditions
12:14 AM 28.4 °F 20.4 °F 23.0 °F 80% 30.14 in 10.0 mi NE 8.1 mph - N/A   Scattered Clouds
12:34 AM 28.4 °F 19.1 °F 23.0 °F 80% 30.15 in 10.0 mi ENE 10.4 mph - N/A   Scattered Clouds
12:54 AM 28.4 °F 20.4 °F 23.0 °F 80% 30.15 in 10.0 mi ENE 8.1 mph - N/A   Mostly Cloudy
1:14 AM 28.4 °F 21.2 °F 23.0 °F 80% 30.15 in 10.0 mi NNE 6.9 mph - N/A   Overcast
1:34 AM 28.4 °F 21.2 °F 23.0 °F 80% 30.16 in 10.0 mi NNE 6.9 mph - N/A   Overcast
1:54 AM 28.4 °F 20.4 °F 23.0 °F 80% 30.15 in 10.0 mi NNE 8.1 mph - N/A   Overcast
2:14 AM 28.4 °F 19.7 °F 23.0 °F 80% 30.15 in 10.0 mi NNE 9.2 mph - N/A   Mostly Cloudy
2:34 AM 28.4 °F 18.5 °F 23.0 °F 80% 30.14 in 10.0 mi North 11.5 mph - N/A   Mostly Cloudy
2:54 AM 28.4 °F 21.2 °F 23.0 °F 80% 30.15 in 10.0 mi NNE 6.9 mph - N/A   Mostly Cloudy
3:14 AM 28.4 °F 21.2 °F 23.0 °F 80% 30.15 in 10.0 mi NNE 6.9 mph - N/A   Mostly Cloudy
3:34 AM 28.4 °F 23.3 °F 23.0 °F 80% 30.15 in 10.0 mi NNE 4.6 mph - N/A   Overcast
3:54 AM 28.4 °F 23.3 °F 23.0 °F 80% 30.16 in 10.0 mi NE 4.6 mph - N/A   Overcast
4:14 AM 28.4 °F 21.2 °F 23.0 °F 80% 30.15 in 10.0 mi ENE 6.9 mph - N/A   Overcast
4:34 AM 28.4 °F 22.2 °F 23.0 °F 80% 30.15 in 10.0 mi NE 5.8 mph - N/A   Mostly Cloudy
4:54 AM 28.4 °F 23.3 °F 23.0 °F 80% 30.15 in 10.0 mi NE 4.6 mph - N/A   Mostly Cloudy
5:14 AM 28.4 °F 23.3 °F 23.0 °F 80% 30.15 in 10.0 mi NE 4.6 mph - N/A   Mostly Cloudy
5:34 AM 28.4 °F 24.6 °F 23.0 °F 80% 30.15 in 10.0 mi NE 3.5 mph - N/A   Mostly Cloudy
5:54 AM 28.4 °F - 23.0 °F 80% 30.16 in 10.0 mi Calm Calm - N/A   Overcast
6:14 AM 28.4 °F 24.6 °F 23.0 °F 80% 30.16 in 10.0 mi NE 3.5 mph - N/A   Overcast
6:34 AM 28.4 °F 24.6 °F 23.0 °F 80% 30.16 in 10.0 mi NE 3.5 mph - N/A   Overcast
6:54 AM 28.4 °F 22.2 °F 23.0 °F 80% 30.16 in 10.0 mi ENE 5.8 mph - N/A   Overcast
7:14 AM 28.4 °F 20.4 °F 23.0 °F 80% 30.17 in 10.0 mi ENE 8.1 mph - N/A   Mostly Cloudy
7:34 AM 28.4 °F 20.4 °F 23.0 °F 80% 30.17 in 10.0 mi ENE 8.1 mph - N/A   Mostly Cloudy
7:54 AM 28.4 °F 19.7 °F 23.0 °F 80% 30.16 in 10.0 mi ENE 9.2 mph - N/A   Overcast
8:14 AM 28.4 °F 19.1 °F 23.0 °F 80% 30.17 in 10.0 mi ENE 10.4 mph - N/A   Mostly Cloudy
8:35 AM 28.4 °F 21.2 °F 21.2 °F 74% 30.17 in 10.0 mi ENE 6.9 mph - N/A   Mostly Cloudy
8:54 AM 28.4 °F 19.1 °F 21.2 °F 74% 30.18 in 10.0 mi ENE 10.4 mph - N/A   Mostly Cloudy
9:14 AM 28.4 °F 19.1 °F 21.2 °F 74% 30.18 in 10.0 mi ENE 10.4 mph - N/A   Mostly Cloudy
9:35 AM 28.4 °F 19.7 °F 21.2 °F 74% 30.19 in 10.0 mi East 9.2 mph - N/A   Mostly Cloudy
9:54 AM 28.4 °F 20.4 °F 21.2 °F 74% 30.19 in 10.0 mi ENE 8.1 mph - N/A   Scattered Clouds
10:14 AM 28.4 °F 20.4 °F 21.2 °F 74% 30.20 in 10.0 mi East 8.1 mph - N/A   Scattered Clouds
10:34 AM 28.4 °F 20.4 °F 23.0 °F 80% 30.20 in 10.0 mi ENE 8.1 mph - N/A   Scattered Clouds
10:54 AM 30.2 °F 21.9 °F 23.0 °F 75% 30.20 in 10.0 mi East 9.2 mph - N/A   Clear
11:14 AM 30.2 °F 21.3 °F 23.0 °F 75% 30.19 in 10.0 mi East 10.4 mph - N/A   Clear
11:34 AM 30.2 °F 21.3 °F 23.0 °F 75% 30.19 in 10.0 mi East 10.4 mph 16.1 mph N/A   Clear
11:54 AM 30.2 °F 20.8 °F 24.8 °F 80% 30.19 in 10.0 mi ENE 11.5 mph 16.1 mph N/A   Clear
12:14 PM 32.0 °F 22.5 °F 24.8 °F 75% 30.18 in 10.0 mi East 12.7 mph - N/A   Clear
12:34 PM 33.8 °F 25.3 °F 24.8 °F 70% 30.18 in 10.0 mi East 11.5 mph - N/A   Clear
12:54 PM 33.8 °F 25.8 °F 24.8 °F 70% 30.18 in 10.0 mi East 10.4 mph 16.1 mph N/A   Clear
1:14 PM 33.8 °F 25.3 °F 24.8 °F 70% 30.18 in 10.0 mi ENE 11.5 mph - N/A   Clear
1:34 PM 33.8 °F 27.0 °F 23.0 °F 65% 30.18 in 10.0 mi East 8.1 mph - N/A   Clear
1:54 PM 33.8 °F 27.0 °F 23.0 °F 65% 30.17 in 10.0 mi East 8.1 mph - N/A   Clear
2:14 PM 32.0 °F 24.8 °F 23.0 °F 69% 30.17 in 10.0 mi East 8.1 mph - N/A   Clear
2:34 PM 33.8 °F 26.4 °F 24.8 °F 70% 30.17 in 10.0 mi East 9.2 mph - N/A   Clear
2:54 PM 33.8 °F 27.7 °F 24.8 °F 70% 30.16 in 10.0 mi East 6.9 mph - N/A   Clear
3:14 PM 33.8 °F 27.0 °F 24.8 °F 70% 30.16 in 10.0 mi ENE 8.1 mph - N/A   Clear
3:34 PM 32.0 °F 24.2 °F 24.8 °F 75% 30.16 in 10.0 mi NE 9.2 mph - N/A   Clear
3:54 PM 32.0 °F 24.2 °F 24.8 °F 75% 30.16 in 10.0 mi NE 9.2 mph - N/A   Clear
4:14 PM 32.0 °F 23.0 °F 24.8 °F 75% 30.16 in 10.0 mi ENE 11.5 mph - N/A   Clear
4:34 PM 32.0 °F 24.2 °F 24.8 °F 75% 30.16 in 10.0 mi NE 9.2 mph - N/A   Clear
4:54 PM 32.0 °F 23.6 °F 24.8 °F 75% 30.16 in 10.0 mi ENE 10.4 mph - N/A   Clear
5:14 PM 32.0 °F 23.6 °F 24.8 °F 75% 30.17 in 10.0 mi ENE 10.4 mph - N/A   Clear
5:34 PM 30.2 °F 21.9 °F 24.8 °F 80% 30.17 in 10.0 mi NE 9.2 mph - N/A   Clear
5:54 PM 30.2 °F 22.6 °F 24.8 °F 80% 30.17 in 10.0 mi NE 8.1 mph - N/A   Clear
6:14 PM 30.2 °F 24.3 °F 24.8 °F 80% 30.18 in 10.0 mi ENE 5.8 mph - N/A   Clear
6:34 PM 30.2 °F 24.3 °F 24.8 °F 80% 30.18 in 10.0 mi ENE 5.8 mph - N/A   Clear
6:54 PM 30.2 °F 24.3 °F 24.8 °F 80% 30.18 in 10.0 mi ENE 5.8 mph - N/A   Clear
7:14 PM 30.2 °F 24.3 °F 24.8 °F 80% 30.18 in 10.0 mi ENE 5.8 mph - N/A   Clear
7:34 PM 30.2 °F 23.4 °F 24.8 °F 80% 30.18 in 10.0 mi ENE 6.9 mph - N/A   Clear
7:54 PM 30.2 °F 22.6 °F 24.8 °F 80% 30.18 in 10.0 mi East 8.1 mph - N/A   Clear
8:14 PM 30.2 °F 23.4 °F 24.8 °F 80% 30.19 in 10.0 mi East 6.9 mph - N/A   Clear
8:34 PM 30.2 °F 22.6 °F 24.8 °F 80% 30.18 in 10.0 mi East 8.1 mph - N/A   Clear
8:54 PM 30.2 °F 21.9 °F 24.8 °F 80% 30.18 in 10.0 mi East 9.2 mph - N/A   Clear
9:14 PM 30.2 °F 21.3 °F 24.8 °F 80% 30.17 in 10.0 mi East 10.4 mph - N/A   Clear
9:34 PM 30.2 °F 22.6 °F 23.0 °F 75% 30.18 in 10.0 mi East 8.1 mph - N/A   Clear
9:54 PM 30.2 °F 21.9 °F 23.0 °F 75% 30.18 in 10.0 mi ESE 9.2 mph - N/A   Clear
10:14 PM 30.2 °F 23.4 °F 24.8 °F 80% 30.19 in 10.0 mi ESE 6.9 mph - N/A   Scattered Clouds
10:34 PM 30.2 °F 22.6 °F 23.0 °F 75% 30.19 in 10.0 mi ESE 8.1 mph - N/A   Scattered Clouds
10:54 PM 30.2 °F 24.3 °F 24.8 °F 80% 30.19 in 10.0 mi East 5.8 mph - N/A   Scattered Clouds
11:14 PM 30.2 °F 24.3 °F 24.8 °F 80% 30.19 in 10.0 mi ESE 5.8 mph - N/A   Scattered Clouds
11:35 PM 30.2 °F 22.6 °F 23.0 °F 75% 30.19 in 10.0 mi ESE 8.1 mph - N/A   Clear
11:54 PM 30.2 °F 24.3 °F 24.8 °F 80% 30.20 in 10.0 mi ESE 5.8 mph - N/A Snow Light Snow